Weather History for Kununurra, WE

Change the Weather History Date:

Saturday, August 24, 2013

  Actual Average Record
Temperature  
Mean Temperature 76 °F -  
Max Temperature 91 °F - - ()
Min Temperature 60 °F - - ()
Cooling Degree Days 10    
Growing Degree Days 26 (Base 50)    
Moisture  
Dew Point 21 °F    
Average Humidity 15    
Maximum Humidity 55    
Minimum Humidity 4    
Precipitation  
Precipitation 0.00 in - - ()
Sea Level Pressure  
Sea Level Pressure 30.01 in    
Wind  
Wind Speed 9 mph ()    
Max Wind Speed 17 mph    
Max Gust Speed -    
Visibility 6.2 miles    
Events      
T = Trace of Precipitation, MM = Missing Value Source: Averaged Metar Reports

Daily Weather History Graph

Daily Weather History Graph

Search for Another Location

Airport:

Trip Planner

Search our weather history database for the weather conditions in past years. The results will help you decide how hot, cold, wet, or windy it might be!

Date:

Astronomy

Aug. 24, 2013 Rise Set
Actual Time 5:36 AM AWST 5:18 PM AWST
Civil Twilight 5:15 AM AWST 5:40 PM AWST
Nautical Twilight 4:49 AM AWST 6:05 PM AWST
Astronomical Twilight 4:24 AM AWST 6:30 PM AWST
Moon 8:20 PM AWST (8/24) 7:37 AM AWST (8/24)
Length of Visible Light 12h 25m
Length of Day
11h 41m
Waning Gibbous, 88% of the Moon is Illuminated
Aug 24
Waning Gibbous
Aug 28
Last Quarter
Sep 5
New
Sep 13
First Quarter
Sep 19
Full

Hourly Weather History & Observations

Time (AWST) Temp. Dew Point Humidity Pressure Visibility Wind Dir Wind Speed Gust Speed Precip Events Conditions
12:00 AM 77 °F 20 °F 5% 30.02 in - SE 11.5 mph - -  
12:00 AM 77.0 °F 19.4 °F 12% 30.01 in 6.2 mi SE 11.5 mph - N/A   Unknown
12:30 AM 77.0 °F 19.4 °F 12% 30.01 in 6.2 mi ESE 11.5 mph - N/A   Unknown
1:00 AM 77.0 °F 19.4 °F 12% 30.01 in 6.2 mi SE 10.4 mph - N/A   Unknown
1:30 AM 77.0 °F 17.6 °F 11% 30.01 in 6.2 mi SE 12.7 mph - N/A   Unknown
2:00 AM 76 °F 17 °F 5% 30.01 in - SE 12.7 mph - -  
2:00 AM 75.2 °F 17.6 °F 11% 30.01 in 6.2 mi SE 12.7 mph - N/A   Unknown
2:30 AM 77.0 °F 12.2 °F 9% 30.01 in 6.2 mi SE 13.8 mph - N/A   Unknown
3:00 AM 76 °F 14 °F 4% 30.02 in - SE 11.5 mph - -  
3:00 AM 75.2 °F 14.0 °F 10% 30.01 in 6.2 mi SE 11.5 mph - N/A   Unknown
3:30 AM 71.6 °F 23.0 °F 16% 30.01 in 6.2 mi South 5.8 mph - N/A   Unknown
4:00 AM 73.4 °F 12.2 °F 10% 30.01 in 6.2 mi SSE 8.1 mph - N/A   Unknown
4:30 AM 75.2 °F 10.4 °F 8% 30.04 in 6.2 mi ESE 15.0 mph - N/A   Unknown
5:00 AM 74 °F 12 °F 4% 30.04 in - ESE 11.5 mph - -  
5:00 AM 73.4 °F 12.2 °F 10% 30.04 in 6.2 mi ESE 11.5 mph - N/A   Unknown
5:30 AM 73.4 °F 14.0 °F 10% 30.04 in 6.2 mi ESE 9.2 mph - N/A   Unknown
6:00 AM 73 °F 16 °F 5% 30.07 in - SE 8.1 mph - -  
6:00 AM 73.4 °F 15.8 °F 11% 30.06 in 6.2 mi SE 8.1 mph - N/A   Unknown
6:30 AM 73.4 °F 15.8 °F 11% 30.06 in 6.2 mi ESE 8.1 mph - N/A   Unknown
7:00 AM 73.4 °F 17.6 °F 12% 30.06 in 6.2 mi ESE 10.4 mph - N/A   Unknown
7:30 AM 75.2 °F 12.2 °F 9% 30.09 in 6.2 mi ESE 13.8 mph - N/A   Unknown
8:00 AM 77 °F 13 °F 4% 30.09 in - ESE 17.3 mph - -  
8:00 AM 77.0 °F 14.0 °F 9% 30.09 in 6.2 mi ESE 17.3 mph - N/A   Unknown
8:30 AM 78.8 °F 14.0 °F 9% 30.09 in 6.2 mi ESE 16.1 mph - N/A   Unknown
9:00 AM 81 °F 14 °F 4% 30.09 in - ESE 15.0 mph - -  
9:00 AM 80.6 °F 14.0 °F 8% 30.06 in 6.2 mi ESE 15.0 mph - N/A   Unknown
9:30 AM 82.4 °F 12.2 °F 7% 30.06 in 6.2 mi SE 15.0 mph - N/A   Unknown
10:00 AM 84.2 °F 14.0 °F 7% 30.06 in 6.2 mi East 15.0 mph - N/A   Unknown
10:30 AM 84.2 °F 10.4 °F 6% 30.04 in 6.2 mi ESE 15.0 mph - N/A   Unknown
11:00 AM 85 °F 14 °F 4% 30.03 in - ESE 13.8 mph - -  
11:00 AM 84.2 °F 14.0 °F 7% 30.04 in 6.2 mi ESE 13.8 mph - N/A   Unknown
11:30 AM 87.8 °F 17.6 °F 8% 30.01 in 6.2 mi East 11.5 mph - N/A   Unknown
12:00 PM 87 °F 14 °F 4% 29.99 in - ENE 10.4 mph - -  
12:00 PM 87.8 °F 14.0 °F 6% 29.98 in 6.2 mi NE 10.4 mph - N/A   Unknown
12:30 PM 89.6 °F 12.2 °F 6% 29.98 in 6.2 mi SE 8.1 mph - N/A   Unknown
1:00 PM 87.8 °F 12.2 °F 6% 29.98 in 6.2 mi SE 11.5 mph - N/A   Unknown
1:30 PM 87.8 °F 12.2 °F 6% 29.95 in 6.2 mi SSE 10.4 mph - N/A   Unknown
2:00 PM 90 °F 12 °F 4% 29.94 in - ESE 10.4 mph - -  
2:00 PM 89.6 °F 12.2 °F 6% 29.95 in 6.2 mi ESE 10.4 mph - N/A   Unknown
2:30 PM 89.6 °F 12.2 °F 6% 29.92 in 6.2 mi SSE 11.5 mph - N/A   Unknown
3:00 PM 89 °F 14 °F 4% 29.93 in - SSE 11.5 mph - -  
3:00 PM 89.6 °F 14.0 °F 6% 29.92 in 6.2 mi SSE 11.5 mph - N/A   Unknown
3:30 PM 89.6 °F 10.4 °F 5% 29.92 in 6.2 mi SSE 10.4 mph - N/A   Unknown
4:00 PM 87.8 °F 15.8 °F 7% 29.92 in 6.2 mi SE 8.1 mph - N/A   Unknown
4:30 PM 87.8 °F 17.6 °F 8% 29.92 in 6.2 mi SSE 6.9 mph - N/A   Unknown
5:00 PM 85 °F 26 °F 5% 29.94 in - South 5.8 mph - -  
5:00 PM 84.2 °F 26.6 °F 12% 29.92 in 6.2 mi South 5.8 mph - N/A   Unknown
5:30 PM 80.6 °F 28.4 °F 15% 29.95 in 6.2 mi South 5.8 mph - N/A   Unknown
6:00 PM 78 °F 31 °F 10% 29.96 in - South 4.6 mph - -  
6:00 PM 78.8 °F 32.0 °F 18% 29.95 in 6.2 mi South 4.6 mph - N/A   Unknown
6:30 PM 77.0 °F 28.4 °F 17% 29.98 in 6.2 mi SSE 4.6 mph - N/A   Unknown
7:00 PM 69.8 °F 41.0 °F 35% 29.98 in 6.2 mi Calm Calm - N/A   Unknown
7:30 PM 68.0 °F 42.8 °F 40% 29.98 in 6.2 mi Calm Calm - N/A   Unknown
8:00 PM 66 °F 38 °F 24% 29.99 in - Calm Calm - -  
8:00 PM 66.2 °F 37.4 °F 35% 29.98 in 6.2 mi Calm Calm - N/A   Unknown
8:30 PM 66.2 °F 37.4 °F 35% 30.01 in 6.2 mi South 2.3 mph - N/A   Unknown
9:00 PM 64 °F 45 °F 38% 30.01 in - Calm Calm - -  
9:00 PM 64.4 °F 44.6 °F 49% 30.01 in 6.2 mi Calm Calm - N/A   Unknown
9:30 PM 64.4 °F 44.6 °F 49% 30.01 in 6.2 mi Calm Calm - N/A   Unknown
10:00 PM 62.6 °F 46.4 °F 55% 30.01 in 6.2 mi Calm Calm - N/A   Unknown
10:30 PM 60.8 °F 41.0 °F 48% 30.01 in 6.2 mi Calm Calm - N/A   Unknown
11:00 PM 62 °F 37 °F 28% 30.02 in - South 2.3 mph - -  
11:00 PM 60.8 °F 37.4 °F 42% 30.01 in 6.2 mi South 2.3 mph - N/A   Unknown
11:30 PM 60.8 °F 41.0 °F 48% 30.01 in 6.2 mi Calm Calm - N/A   Unknown